Wind_Speed
27 27 27 27 27 27 28 28 29 30 30 31 32 32 33 33 32 32 32 31 31 31 31 30 31 30 30 30 30 31 31 32 31 31 30 30 29 30
25 25 25 26 27 28 28 28 29 30 30 30 31 31 32 32 32 32 31 31 31 31 31 31 31 31 31 30 30 30 30 31 32 31 31 30 30 28
23 24 25 26 26 26 27 28 28 28 28 29 30 31 31 31 31 31 31 31 31 32 31 32 32 32 32 31 31 30 29 29 30 30 29 28 28 28
23 23 24 25 25 25 27 28 27 27 27 27 28 29 30 30 30 30 31 32 32 32 32 32 32 32 32 31 31 31 30 30 31 30 29 28 28 28
22 22 22 23 24 24 25 26 26 26 26 27 28 28 28 30 30 30 31 32 32 32 33 32 32 32 32 32 31 31 30 30 31 30 30 30 29 29
21 21 21 22 23 23 23 24 25 25 26 26 26 27 27 28 28 29 29 29 30 31 31 31 31 31 31 31 31 31 30 30 31 31 31 31 31 30
21 21 21 21 21 21 22 22 23 24 25 25 26 26 26 27 27 27 28 28 28 28 29 29 30 30 31 31 31 31 31 31 31 31 31 31 31 30
18 19 19 19 19 19 20 20 21 22 23 24 25 25 26 26 27 27 27 27 27 28 29 30 30 30 31 31 31 31 31 31 31 32 32 31 30 30
17 18 18 18 19 19 18 19 19 20 22 23 24 25 26 26 26 27 27 27 27 28 28 29 29 30 30 30 31 31 31 31 31 31 32 31 31 30
17 17 17 17 17 18 18 18 18 19 20 21 23 24 25 25 25 25 26 26 26 27 28 28 29 29 29 29 29 30 30 29 29 29 30 30 31 31
16 16 17 17 17 16 16 16 16 16 17 18 20 21 23 23 24 25 25 25 25 25 26 28 28 28 29 29 29 29 29 29 28 28 28 29 29 30
15 15 16 15 15 15 15 14 14 14 14 15 17 18 19 20 22 24 24 25 26 26 26 26 27 27 27 27 27 27 27 27 27 27 27 27 27 28
15 15 15 14 14 14 13 12 13 14 14 14 15 16 17 18 20 22 23 24 24 24 25 25 26 26 27 27 27 27 27 27 26 26 26 27 27 28
14 13 13 12 12 12 12 12 12 12 13 14 14 15 16 17 19 19 20 22 23 23 23 24 25 26 26 26 26 26 26 26 26 26 26 26 27 27
14 13 12 12 12 12 12 11 11 11 12 13 14 15 16 17 18 18 19 20 21 22 22 22 23 24 25 25 26 26 26 26 25 25 26 25 26 27
13 13 12 12 12 12 12 11 11 11 12 12 13 14 14 15 15 16 17 18 20 20 21 21 22 23 23 24 24 24 25 25 25 25 25 25 25 26
13 13 12 11 11 12 12 11 11 11 11 11 11 12 12 13 13 14 15 16 17 18 20 21 21 22 22 22 23 23 24 24 24 24 24 24 24 24
14 13 12 12 12 11 11 11 10 11 11 11 11 11 12 12 13 13 14 15 16 17 18 19 20 20 21 22 23 23 24 24 24 23 23 23 23 23
15 14 13 13 12 12 12 12 12 12 11 11 11 11 12 12 13 13 14 15 15 16 17 18 19 20 21 21 22 23 24 24 24 24 24 24 24 24
16 15 14 14 13 13 13 12 12 12 12 12 12 12 12 12 13 14 14 15 16 17 18 18 19 20 20 21 21 23 24 24 25 25 25 25 25 25
16 16 15 15 14 15 15 15 15 14 14 14 14 14 14 14 14 14 15 16 16 17 18 19 19 20 21 21 22 23 24 24 25 25 26 26 26 26
17 17 16 15 15 15 16 16 16 15 15 16 16 16 16 16 16 16 16 17 17 18 19 20 22 22 23 23 24 24 25 25 25 26 27 27 27 27
18 18 17 17 17 16 16 17 17 17 17 17 18 18 18 18 17 18 18 19 20 20 21 22 23 24 24 25 25 25 26 26 27 26 26 27 28 29
Wind_Direction
277 275 274 272 271 269 268 266 263 260 259 257 256 255 252 251 250 247 247 249 249 249 248 247 247 247 245 247 247 246 245 245 245 245 246 250 251 253
278 276 275 274 272 270 268 266 265 262 259 256 255 254 254 253 252 249 248 248 248 248 247 245 245 245 244 245 246 245 245 245 246 248 249 251 252 253
278 277 277 276 273 271 270 268 266 263 260 256 253 252 252 252 251 250 249 248 248 249 247 244 244 243 243 244 245 245 245 247 247 248 249 250 251 253
279 279 278 278 274 272 272 269 266 263 258 254 251 252 251 250 249 249 249 249 248 248 246 244 243 243 242 243 244 243 245 247 248 248 248 248 249 252
279 278 278 278 276 274 273 269 266 261 257 254 251 252 252 250 249 249 249 248 248 247 247 246 246 244 244 242 242 243 244 246 247 247 247 248 250 252
279 279 279 279 278 277 273 270 266 261 257 253 250 251 250 250 249 249 248 248 246 246 245 246 246 244 242 242 243 244 245 246 247 247 248 250 251 252
283 283 280 282 281 278 274 271 266 261 257 253 250 250 250 249 248 249 248 249 247 246 245 246 246 246 244 243 244 245 246 247 247 248 248 250 251 251
286 285 284 284 284 281 277 273 268 262 257 254 251 250 249 248 249 249 247 246 246 246 246 246 246 246 246 246 246 247 246 247 247 247 248 250 252 252
290 288 288 286 285 285 281 276 271 265 259 257 254 252 251 249 249 248 248 248 246 246 246 245 245 246 247 247 247 246 247 248 248 249 249 251 252 252
296 294 291 289 290 287 282 277 274 270 264 260 257 254 251 249 247 246 247 248 247 247 246 246 246 246 246 247 247 246 247 249 249 249 249 250 252 253
302 300 296 293 292 291 286 281 277 275 268 263 261 256 252 249 245 245 246 246 247 247 247 247 246 245 245 246 247 247 246 247 247 248 249 249 250 251
304 303 300 297 295 295 293 287 281 280 275 270 266 259 253 251 249 247 247 247 248 246 246 245 245 244 243 243 243 244 244 244 247 248 248 248 249 249
310 307 305 301 298 297 294 288 284 280 275 271 268 262 257 255 253 249 247 246 245 245 246 245 245 245 244 243 243 244 244 245 247 249 250 249 249 249
318 313 311 307 301 301 301 296 290 284 278 273 269 265 261 258 256 251 249 247 245 245 245 245 245 245 245 245 246 246 245 246 247 248 250 249 248 249
321 321 317 313 309 306 305 303 296 290 288 283 275 270 266 261 258 255 252 249 246 245 246 246 245 245 245 246 247 247 247 247 247 248 249 250 250 250
331 327 324 321 318 316 312 307 303 299 294 290 284 278 271 267 262 259 256 250 246 245 245 245 245 245 246 246 246 246 246 248 249 250 251 252 252 251
340 337 331 325 322 320 317 315 310 305 300 294 288 284 280 274 267 262 258 253 247 246 246 247 248 248 247 246 246 246 247 248 250 251 251 252 252 253
337 337 333 329 325 321 319 318 313 309 304 297 291 287 284 280 272 265 260 255 251 250 249 249 249 249 249 247 247 248 248 250 251 250 250 250 251 251
335 334 331 327 325 322 316 314 311 307 302 297 294 291 289 283 277 270 264 258 255 253 251 249 251 252 252 251 248 248 249 250 252 252 251 250 251 252
335 333 329 326 325 322 320 316 311 306 302 299 297 294 291 288 283 275 269 264 261 258 255 254 255 255 254 253 252 252 251 251 252 252 252 252 252 253
335 334 329 323 321 320 317 315 311 306 303 299 298 297 294 291 287 281 273 268 266 263 260 259 260 259 257 256 256 255 255 254 254 254 255 255 255 255
329 329 328 325 321 320 317 313 311 307 302 299 296 295 294 291 286 281 277 273 269 267 265 262 263 263 261 261 261 259 257 257 257 256 256 258 258 257
330 328 324 322 319 318 317 314 311 307 303 300 297 294 291 288 284 280 277 274 271 269 268 266 265 265 265 264 263 260 259 258 259 258 258 260 260 260
Height
5736 5735 5734 5733 5733 5732 5732 5732 5733 5734 5735 5735 5736 5737 5739 5741 5743 5744 5746 5748 5750 5751 5753 5754 5756 5758 5759 5761 5762 5764 5765 5767 5769 5770 5772 5773 5773 5774
5728 5727 5726 5725 5724 5724 5723 5723 5724 5724 5725 5726 5727 5729 5730 5731 5733 5735 5737 5739 5741 5742 5744 5746 5748 5749 5751 5753 5755 5756 5757 5759 5761 5763 5764 5765 5766 5766
5720 5719 5718 5717 5716 5715 5715 5714 5714 5715 5716 5717 5718 5719 5721 5722 5724 5726 5728 5730 5732 5733 5735 5737 5739 5741 5743 5745 5747 5748 5750 5752 5753 5755 5756 5757 5758 5759
5713 5712 5711 5709 5708 5707 5707 5706 5706 5706 5707 5708 5709 5710 5712 5713 5715 5717 5719 5721 5723 5725 5726 5728 5730 5733 5735 5737 5739 5741 5742 5744 5746 5747 5749 5750 5751 5752
5706 5705 5703 5702 5701 5700 5699 5698 5697 5698 5698 5699 5701 5702 5703 5705 5707 5708 5710 5712 5714 5716 5718 5720 5722 5724 5726 5728 5730 5733 5735 5736 5738 5739 5741 5742 5743 5744
5699 5698 5697 5695 5694 5692 5691 5690 5690 5689 5690 5691 5692 5694 5695 5697 5698 5700 5702 5703 5705 5707 5709 5711 5713 5716 5718 5720 5722 5724 5726 5728 5730 5732 5733 5735 5736 5736
5693 5692 5690 5688 5687 5685 5684 5683 5682 5682 5683 5683 5685 5686 5687 5688 5690 5692 5694 5696 5697 5699 5701 5704 5706 5708 5710 5712 5714 5716 5718 5720 5722 5723 5725 5726 5727 5728
5688 5686 5684 5682 5680 5679 5677 5676 5675 5675 5676 5676 5677 5678 5679 5681 5682 5684 5686 5688 5690 5692 5693 5695 5698 5700 5702 5704 5706 5708 5710 5711 5713 5715 5716 5718 5719 5720
5682 5681 5679 5677 5674 5673 5671 5670 5669 5668 5669 5669 5670 5670 5672 5673 5675 5676 5678 5680 5682 5684 5685 5688 5690 5692 5694 5696 5698 5699 5701 5703 5705 5706 5708 5709 5711 5712
5678 5676 5673 5671 5669 5667 5666 5665 5663 5662 5662 5662 5663 5663 5664 5665 5666 5668 5670 5672 5674 5676 5678 5680 5682 5684 5686 5687 5689 5691 5693 5695 5696 5698 5700 5701 5702 5704
5673 5671 5669 5667 5665 5663 5661 5660 5658 5657 5656 5656 5656 5656 5657 5658 5659 5661 5663 5665 5666 5668 5670 5672 5674 5676 5678 5680 5681 5683 5685 5687 5688 5690 5692 5693 5694 5695
5670 5667 5665 5663 5660 5659 5657 5655 5654 5653 5652 5651 5651 5651 5651 5652 5653 5654 5656 5657 5659 5661 5663 5665 5666 5668 5670 5672 5674 5675 5677 5679 5680 5682 5683 5685 5686 5687
5666 5664 5661 5659 5657 5655 5653 5652 5650 5649 5648 5647 5647 5646 5646 5647 5647 5648 5649 5651 5652 5654 5656 5657 5659 5661 5663 5665 5667 5668 5670 5671 5673 5674 5675 5677 5678 5680
5663 5661 5658 5656 5654 5652 5650 5649 5647 5646 5644 5643 5643 5642 5642 5642 5642 5643 5643 5644 5646 5647 5648 5650 5652 5654 5656 5658 5660 5661 5663 5664 5665 5667 5668 5669 5670 5671
5661 5658 5656 5653 5651 5650 5648 5646 5644 5643 5641 5640 5639 5638 5638 5638 5637 5638 5638 5639 5640 5641 5642 5644 5646 5647 5649 5651 5653 5654 5656 5657 5658 5659 5660 5661 5663 5664
5658 5656 5653 5651 5649 5647 5645 5643 5641 5640 5638 5637 5636 5635 5634 5633 5633 5633 5633 5633 5635 5636 5637 5638 5639 5641 5643 5644 5646 5647 5649 5650 5651 5652 5653 5654 5655 5656
5657 5654 5651 5649 5647 5645 5643 5641 5639 5637 5636 5634 5633 5631 5630 5629 5629 5628 5628 5628 5629 5630 5632 5633 5634 5635 5636 5638 5639 5641 5642 5643 5644 5645 5646 5647 5648 5649
5655 5652 5649 5647 5645 5642 5640 5638 5637 5635 5633 5631 5630 5629 5627 5626 5625 5624 5624 5624 5625 5625 5626 5627 5629 5630 5631 5632 5633 5634 5635 5636 5637 5638 5639 5640 5641 5642
5653 5650 5648 5645 5643 5640 5638 5636 5634 5632 5631 5629 5627 5626 5624 5623 5622 5621 5620 5620 5621 5621 5622 5622 5623 5624 5625 5626 5627 5628 5629 5629 5630 5631 5632 5633 5634 5635
5651 5648 5645 5643 5641 5638 5636 5634 5632 5630 5628 5626 5624 5622 5621 5619 5618 5617 5617 5616 5616 5617 5617 5617 5618 5618 5619 5620 5621 5621 5622 5622 5623 5624 5625 5625 5626 5627
5649 5646 5643 5640 5638 5636 5633 5631 5629 5626 5624 5622 5621 5619 5617 5615 5614 5613 5612 5612 5612 5612 5612 5612 5612 5612 5613 5613 5614 5615 5615 5615 5615 5616 5617 5617 5618 5619
5646 5643 5640 5637 5635 5632 5630 5627 5625 5623 5620 5618 5616 5615 5613 5611 5610 5609 5608 5607 5606 5606 5606 5606 5605 5606 5606 5606 5606 5607 5607 5607 5607 5608 5608 5609 5609 5610
5643 5640 5637 5634 5631 5628 5625 5623 5621 5618 5616 5614 5612 5610 5608 5606 5604 5603 5602 5601 5600 5599 5599 5599 5598 5598 5598 5598 5598 5598 5598 5598 5599 5600 5600 5600 5600 5601